Regional Weather Roundup
Issued by NWS

Home | Current Version | Previous Version | Text Only | Print | Product List | Glossary Off
Versions: 1 2 3 4 5 6 7 8 9 10 11 12 13 14 15 16 17 18 19 20 21 22 23 24 25 26 27 28 29 30 31 32 33 34 35 36 37 38 39 40 41 42 43 44 45 46 47 48 49 50

000
ASUS43 KOAX 251410
RWRNE

WEATHER ROUNDUP FOR NEBRASKA
NATIONAL WEATHER SERVICE OMAHA NE
900 AM CDT MON SEP 25 2017

NOTES: SATELLITE DATA IS BEING USED TO AUGMENT CLOUD COVER ABOVE
       12000 FEET.
       "FAIR" INDICATES FEW OR NO CLOUDS BELOW 12,000 FEET WITH NO
       SIGNIFICANT WEATHER AND/OR OBSTRUCTIONS TO VISIBILITY.


NEZ001>004-019>022-054>056-251500-
NEBRASKA PANHANDLE

CITY           SKY/WX    TMP DP  RH WIND       PRES   REMARKS
SCOTTSBLUFF    CLOUDY    44  40  85 NE7       30.14R
ALLIANCE       CLOUDY    42  41  96 NE8       30.14R
CHADRON        CLOUDY    41  40  96 CALM      30.15R FOG
GORDON         CLOUDY    44  42  93 NE6       30.13R
KIMBALL        CLOUDY    41  41 100 NE5       30.13R FOG
SIDNEY         CLOUDY    44  42  93 NE9       30.13R
$$

NEZ057>060-069>072-079>082-251500-
SOUTHWEST NEBRASKA

CITY           SKY/WX    TMP DP  RH WIND       PRES   REMARKS
NORTH PLATTE   CLOUDY    49  46  90 N7        30.06R
IMPERIAL       LGT RAIN  48  45  89 N10       30.08F
LEXINGTON      CLOUDY    51  48  89 N12       30.04R
MCCOOK         LGT RAIN  50  50 100 N12       30.06R FOG
OGALLALA       CLOUDY    50  46  87 NE7       30.10S
$$

NEZ005>010-023>029-035>040-094-251500-
NORTH CENTRAL NEBRASKA

CITY           SKY/WX    TMP DP  RH WIND       PRES   REMARKS
VALENTINE      CLOUDY    48  45  89 N10       30.11S
AINSWORTH      CLOUDY    47  47 100 N8        30.10F
BROKEN BOW     CLOUDY    50  49  96 N14       30.03F
O`NEILL        RAIN      49  49 100 N10       30.06F
ORD            CLOUDY    51  47  86 N9        30.03R
THEDFORD       CLOUDY    47  46  95 N9        30.09F
$$

NEZ041-046>049-061>064-073>077-083>087-251500-
SOUTH CENTRAL NEBRASKA

CITY           SKY/WX    TMP DP  RH WIND       PRES   REMARKS
GRAND ISLAND   LGT RAIN  52  52 100 N14       30.01R
AURORA         RAIN      52  52 100 N7        29.99S
HASTINGS       RAIN      53  51  93 N9        30.01R FOG
HEBRON         RAIN      58  58  97 E3        29.95F
HOLDREGE       LGT RAIN  50  49  96 N14       30.01R
KEARNEY        LGT RAIN  51  50  96 N13       30.02R FOG
YORK           CLOUDY    55  55 100 N3        29.99R
$$

NEZ011>018-030>034-042>045-251500-
NORTHEAST NEBRASKA

CITY           SKY/WX    TMP DP  RH WIND       PRES   REMARKS
NORFOLK        CLOUDY    53  53 100 N12       29.99F
ALBION         RAIN      52  51  97 N7        30.01F
BLAIR          CLOUDY    60  59  98 NE3       29.95F
COLUMBUS       LGT RAIN  55  54  96 MISG      29.99R
FREMONT        CLOUDY    59  58  98 N3        29.97S
TEKAMAH        LGT RAIN  59  57  93 N6        29.96S
WAYNE          CLOUDY    55  52  91 N8        30.00S FOG
$$

NEZ050>053-065>068-078-088>093-251500-
SOUTHEAST NEBRASKA

CITY           SKY/WX    TMP DP  RH WIND       PRES   REMARKS
LINCOLN        LGT RAIN  59  57  93 E6        29.96F
OMAHA EPPLEY   CLOUDY    60  57  89 N12       29.95F
BEATRICE       HVY RAIN  63  62  99 CALM      29.94S
FALLS CITY     SUNNY     72  66  81 W5        29.92R
NEBRASKA CITY  CLOUDY    65  65 100 NE8       29.94S
PLATTSMOUTH    CLOUDY    64  64 100 N7        29.94S FOG
$$

NEZ044-045-051>053-067-251500-
OMAHA AREA

CITY           SKY/WX    TMP DP  RH WIND       PRES   REMARKS
OMAHA EPPLEY   CLOUDY    60  57  89 N12       29.95F
BLAIR          CLOUDY    60  59  98 NE3       29.95F
FREMONT        CLOUDY    59  58  98 N3        29.97S
MILLARD        CLOUDY    61  59  92 CALM      29.96S
OFFUTT AFB     CLOUDY    61  59  94 N6        29.95R
PLATTSMOUTH    CLOUDY    64  64 100 N7        29.94S FOG
WAHOO          LGT RAIN  60  59  97 NE7       29.95S
$$




USA.gov is the U.S. government's official web portal to all federal, state and local government web resources and services.